Flag for USA

Past Weather in Columbus Marsh Mining District, Nevada, USA — Yesterday and Last 2 Weeks

Now
64 °F

Passing clouds.


Feels Like: 64 °F
Forecast: 73 / 36 °F
Wind: 5 mph from Northwest

Location: Reno Tahoe International Airport

Current Time: Oct 15, 2019 at 9:52:09 pm

Latest Report: Oct 15, 2019 at 8:55 pm


Visibility: 10 mi

Pressure: 30.07 "Hg

Humidity: 16%

Dew Point: 17 °F

Location of Columbus Marsh Mining DistrictLocation

Past Weather in Columbus Marsh Mining District — Graph

°F

Columbus Marsh Mining District Temperature Yesterday

Maximum temperature yesterday: 72 °F (at 4:55 pm)
Minimum temperature yesterday: 34 °F (at 6:55 am)
Average temperature yesterday: 53 °F

High & Low Weather Summary for the Past Weeks

 TemperatureHumidityPressure
High80 °F (Oct 8, 1:55 pm)73% (Oct 1, 7:55 am)30.31 "Hg (Oct 1, 7:55 am)
Low30 °F (Oct 11, 5:55 am)9% (Oct 10, 2:55 pm)29.71 "Hg (Oct 9, 12:55 am)
Average52 °F35%30.04 "Hg
* Reported Sep 30 7:55 pm — Oct 15 7:55 pm, Columbus Marsh Mining District. Weather by CustomWeather, © 2019

Note: Actual official high and low records may vary slightly from our data, if they occured in-between our weather recording intervals... More about our weather records

Advertising

Columbus Marsh Mining District Weather History for the Previous 24 Hours

Scroll right to see more
 ConditionsComfort  
Time TempWeatherWind HumidityBarometerVisibility
7:55 pm
Tue, Oct 15
66 °FPassing clouds.3 mph14%30.08 "Hg10 mi
6:55 pm69 °FPassing clouds.12 mph12%30.04 "Hg10 mi
5:55 pm74 °FPartly sunny.15 mph10%30.01 "Hg10 mi
4:55 pm78 °FPartly sunny.12 mph9%30.01 "Hg10 mi
3:55 pm77 °FPartly sunny.3 mph10%30.01 "Hg10 mi
2:55 pm77 °FMore clouds than sun.7 mph11%30.01 "Hg10 mi
1:55 pm74 °FBroken clouds.No wind11%30.05 "Hg10 mi
12:55 pm70 °FScattered clouds.5 mph14%30.07 "Hg10 mi
11:55 am63 °FPassing clouds.No wind20%30.10 "Hg10 mi
10:55 am55 °FPassing clouds.3 mph28%30.14 "Hg10 mi
9:55 am50 °FPassing clouds.No wind36%30.15 "Hg10 mi
8:55 am43 °FPassing clouds.No wind49%30.17 "Hg10 mi
7:55 am38 °FPassing clouds.No wind58%30.16 "Hg10 mi
6:55 am36 °FClear.No wind59%30.15 "Hg10 mi
5:55 am40 °FClear.No wind53%30.12 "Hg10 mi
4:55 am39 °FClear.No wind55%30.11 "Hg10 mi
3:55 am43 °FClear.3 mph47%30.09 "Hg10 mi
2:55 am43 °FClear.No wind47%30.08 "Hg10 mi
1:55 am42 °FClear.No wind49%30.10 "Hg10 mi
12:55 am46 °FClear.No wind42%30.08 "Hg10 mi
11:55 pm
Mon, Oct 14
51 °FClear.3 mph31%30.07 "Hg10 mi
10:55 pm52 °FClear.3 mph30%30.07 "Hg10 mi
9:55 pm54 °FClear.No wind27%30.06 "Hg10 mi
Weather by CustomWeather, © 2019

See weather overview